| time (UTC) | temp C | wind direction | speed KPH | gust KPH | rain 1hr cm | rain 24hr cm | rain mn cm | humidity % | barometer mb |
| 20260504033127 | 6 | 133 | 0.0 | 0.0 | 0.00 | 0.03 | 0.03 | 88 | 1016.3 |
| 20260504031524 | 7 | 133 | 0.0 | 0.0 | 0.00 | 0.03 | 0.03 | 87 | 1016.5 |
| 20260504030006 | 7 | 133 | 0.0 | 0.0 | 0.00 | 0.03 | 0.03 | 86 | 1016.6 |
| 20260504024505 | 7 | 133 | 0.0 | 0.0 | 0.00 | 0.03 | 0.03 | 83 | 1016.5 |
| 20260504023048 | 8 | 133 | 0.0 | 0.0 | 0.00 | 0.03 | 0.03 | 81 | 1016.6 |
| 20260504021547 | 8 | 133 | 0.0 | 0.0 | 0.00 | 0.03 | 0.03 | 80 | 1016.3 |
| 20260504020039 | 9 | 133 | 0.0 | 0.0 | 0.00 | 0.03 | 0.03 | 79 | 1015.9 |
| 20260504014535 | 10 | 133 | 0.0 | 0.0 | 0.00 | 0.03 | 0.03 | 74 | 1015.6 |
| 20260504013033 | 11 | 133 | 0.0 | 0.0 | 0.00 | 0.03 | 0.03 | 72 | 1015.5 |
| 20260504011533 | 11 | 133 | 0.0 | 0.0 | 0.00 | 0.03 | 0.03 | 69 | 1015.4 |
| 20260504010041 | 12 | 133 | 0.0 | 0.0 | 0.00 | 0.03 | 0.03 | 66 | 1015.5 |
| 20260504004532 | 14 | 133 | 0.0 | 0.0 | 0.00 | 0.03 | 0.03 | 56 | 1015.5 |
| 20260504003029 | 16 | 132 | 0.0 | 0.0 | 0.00 | 0.03 | 0.03 | 48 | 1015.4 |
| 20260504001528 | 17 | 148 | 0.0 | 3.2 | 0.00 | 0.03 | 0.03 | 42 | 1015.5 |
| 20260504000010 | 18 | 152 | 0.0 | 3.2 | 0.00 | 0.03 | 0.03 | 40 | 1015.7 |
| 20260503234510 | 19 | 236 | 1.6 | 6.4 | 0.00 | 0.03 | 0.03 | 37 | 1016.1 |
| 20260503233049 | 19 | 226 | 3.2 | 11.3 | 0.00 | 0.03 | 0.03 | 35 | 1016.2 |
| 20260503231552 | 20 | 202 | 3.2 | 8.0 | 0.00 | 0.03 | 0.03 | 36 | 1016.3 |
| 20260503230029 | 20 | 229 | 4.8 | 11.3 | 0.00 | 0.03 | 0.03 | 34 | 1016.3 |
| 20260503224528 | 20 | 233 | 8.0 | 16.1 | 0.00 | 0.03 | 0.03 | 33 | 1016.4 |
| 20260503223020 | 20 | 251 | 4.8 | 12.9 | 0.00 | 0.03 | 0.03 | 35 | 1016.7 |
| 20260503221507 | 20 | 219 | 1.6 | 16.1 | 0.00 | 0.03 | 0.03 | 34 | 1016.7 |
| 20260503220056 | 20 | 229 | 3.2 | 11.3 | 0.00 | 0.03 | 0.03 | 37 | 1016.9 |
| 20260503214556 | 20 | 236 | 0.0 | 11.3 | 0.00 | 0.03 | 0.03 | 36 | 1017.1 |
| 20260503213120 | 20 | 210 | 3.2 | 12.9 | 0.00 | 0.03 | 0.03 | 33 | 1017.3 |
| 20260503211613 | 19 | 238 | 0.0 | 11.3 | 0.00 | 0.03 | 0.03 | 36 | 1017.6 |
| 20260503210044 | 19 | 233 | 4.8 | 16.1 | 0.00 | 0.03 | 0.03 | 37 | 1017.8 |
| 20260503204558 | 19 | 216 | 3.2 | 9.7 | 0.00 | 0.03 | 0.03 | 36 | 1018.1 |
| 20260503203040 | 18 | 240 | 6.4 | 17.7 | 0.00 | 0.03 | 0.03 | 37 | 1018.4 |
| 20260503201538 | 18 | 252 | 4.8 | 14.5 | 0.00 | 0.03 | 0.03 | 36 | 1018.7 |
| 20260503200027 | 18 | 283 | 3.2 | 12.9 | 0.00 | 0.03 | 0.03 | 35 | 1019.0 |
| 20260503194527 | 18 | 224 | 3.2 | 11.3 | 0.00 | 0.03 | 0.03 | 35 | 1019.3 |
| 20260503193054 | 17 | 144 | 6.4 | 11.3 | 0.00 | 0.03 | 0.03 | 37 | 1019.5 |
| 20260503191602 | 17 | 203 | 4.8 | 16.1 | 0.00 | 0.03 | 0.03 | 36 | 1019.6 |
| 20260503190033 | 17 | 246 | 1.6 | 14.5 | 0.00 | 0.03 | 0.03 | 40 | 1020.0 |
| 20260503184529 | 17 | 182 | 4.8 | 14.5 | 0.00 | 0.03 | 0.03 | 41 | 1020.1 |
| 20260503183008 | 17 | 248 | 4.8 | 11.3 | 0.00 | 0.03 | 0.03 | 40 | 1020.2 |
| 20260503181506 | 16 | 128 | 4.8 | 14.5 | 0.00 | 0.03 | 0.03 | 41 | 1020.4 |
| 20260503180046 | 16 | 220 | 6.4 | 16.1 | 0.00 | 0.03 | 0.03 | 41 | 1020.6 |
| 20260503174555 | 16 | 229 | 4.8 | 11.3 | 0.00 | 0.03 | 0.03 | 42 | 1020.7 |
| 20260503173025 | 16 | 310 | 4.8 | 9.7 | 0.00 | 0.03 | 0.03 | 40 | 1021.0 |
| 20260503171527 | 16 | 105 | 1.6 | 6.4 | 0.00 | 0.03 | 0.03 | 43 | 1021.3 |
| 20260503100108 | 0 | 302 | 0.0 | 0.0 | 0.00 | 0.00 | 0.00 | 95 | 1020.7 |
| 20260503081554 | 1 | 302 | 0.0 | 0.0 | 0.00 | 0.00 | 0.00 | 94 | 1020.4 |
| 20260503071615 | 2 | 302 | 0.0 | 0.0 | 0.00 | 0.00 | 0.00 | 94 | 1020.3 |
| 20260503070114 | 2 | 302 | 0.0 | 0.0 | 0.00 | 0.00 | 0.00 | 94 | 1020.1 |
| 20260503054602 | 3 | 302 | 0.0 | 0.0 | 0.00 | 0.00 | 0.00 | 93 | 1020.0 |
| 20260503053058 | 3 | 302 | 0.0 | 0.0 | 0.00 | 0.00 | 0.00 | 93 | 1020.1 |
| 20260503051547 | 3 | 302 | 0.0 | 0.0 | 0.00 | 0.00 | 0.00 | 93 | 1019.9 |
| 20260503050038 | 3 | 302 | 0.0 | 0.0 | 0.00 | 0.00 | 0.00 | 93 | 1019.9 |
| 20260503044519 | 3 | 302 | 0.0 | 0.0 | 0.00 | 0.00 | 0.00 | 94 | 1019.8 |
| 20260503043021 | 4 | 302 | 0.0 | 0.0 | 0.00 | 0.00 | 0.00 | 93 | 1019.6 |
| 20260503041559 | 4 | 302 | 0.0 | 0.0 | 0.00 | 0.00 | 0.00 | 92 | 1019.6 |
| 20260503040058 | 5 | 302 | 0.0 | 0.0 | 0.00 | 0.00 | 0.00 | 92 | 1019.5 |
| 20260503034545 | 5 | 302 | 0.0 | 0.0 | 0.00 | 0.00 | 0.00 | 91 | 1019.5 |